Погода в Варзуге

Погода в Варзуге : погода сейчас, прогноз погоды и архив. Всё, что Вы хотите узнать о погоде в Варзуге!

Поиск расширенной информации на нашем сайте:

Другие новости

Новости СМИ2

Главная страница сайта

Новости сайта

02.10.2013

Напоминаем, что на нашем новом сайте вы можете получить высокодетализированные прогнозы погоды по пунктам России, СНГ и мира (включающие важные для авиации метеовеличины, такие как направление и скорость ветра, видимость, явления погоды, количество и форма облачности, нижняя и верхняя граница облачности), а также ознакомиться с разнообразными материалами по авиационной метеорологии и подборкой полезных ссылок на эту тему.

Сайт Метеоцентр.Азия посвящён разработке технологий оптимизации авиаметеорологического обслуживания, включая проектирование и перспективное создание нескольких автоматизированных авиаметеорологических систем:
- система выпуска высокодетальных прогностических карт явлений погоды для нижнего воздушного пространства по России и ближнему зарубежью;
- система верификации прогнозов TAF (выпускаемых синоптиками официальных АМСГ РФ и ближнего зарубежья) и AUTOTAF (выпускаемых сайтом Метеоцентр.Азия) - выявление ошибок, онлайн-сопоставление с фактической погодой METAR, автоматическое внесение коррективов в прогнозы при резком отклонении фактической погоды от прогноза, подсчёт оправдываемости прогнозов по элементам и в целом;
- система обработки, анализа и отображения авиаметеорологической информации для применения провайдерами метеорологической информации.

Рекомендуем: предлагаем помещения: купить офис в БЦ Школа Журналистов у метро Тверская

Погода в Варзуге - сегодня

Время (UTC), дата Ветер
(°,м/с) 
Видим.   Явления Облачность Т
(°С)
Тd
(°С)
f(%) Тe
(°С)
Pmin
(гПа)
dP
(гПа)
Po
(мм)
O2
(г/м3)
Тmin Tmax R s Состояние
почвы
03 18.01.17 260 (З) 9-11{13}  н/о    н/о 
-2.8 -2.8 100 -8  1009.8  -2  757  308  -6.4         
06 18.01.17 300 (СЗ) 2-4{11}  20000 м    ясно 
-3.1 -3.1 100 -4  1010.7  -2  758  309  -6    0.6  11  неравномерный
сухой снег
100% 
09 18.01.17 290 (З) 4-6{11}  н/о    н/о 
-3.1 -3.1 100 -6  1011.9  1.2  758  309           
12 18.01.17 290 (З) 7-10{11}  н/о    н/о 
-2.3 -2.7 97 -7  1011.7  -0.2  758  308           
15 18.01.17 310 (СЗ) 2-4{10}  н/о    н/о 
-4 -4.3 98 -5  1011.2  -0.5  758  310           
18 18.01.17 230 (ЮЗ) 5-7  20000 м    10/10 600 м 
[Sc]
-2.2 -4.6 84 -6  1007.9  -3.3  755  307    -2.1       
21 18.01.17 200 (Ю) 11-14{14}  н/о    н/о 
-1.5 -1.5 100 -7  1000.9  -6.9  750  304           
00 19.01.17 200 (Ю) 12-16{18}  н/о    н/о 
-0.6 -0.6 100 -6  992.2  -8.7  744  300           
03 19.01.17 240 (ЮЗ) 13-17{17}  н/о    н/о 
+0.8 +0.8 100 -5  985.2  -6.9  738  297  -5.8         
06 19.01.17 290 (З) 8-12{18}  20000 м    10/10 300 м кучево-дожд. 
[Cb cap]
+1.2 +1.1 99 -3  983.9  -1.3  737  296  -2.2    11  неравномерный
мокрый или
старый снег
100% 
09 19.01.17 310 (СЗ) 9-14{18}  н/о    н/о 
-0.4 -3.9 77 -5  989.2  5.3  741  300           
12 19.01.17 280 (З) 7-12{16}  н/о    н/о 
-0.9 -3.9 80 -5  989.5  0.3  742  300           
15 19.01.17 220 (ЮЗ) 12-14{14}  н/о    н/о 
-1.2 -1.2 100 -7  982.5  -7  736  298           
18 19.01.17 290 (З) 11-16{17}  4000 м    10/10 300 м кучево-дожд. 
[Cb cap]
-0.8 -0.9 99 -6  979.8  -2.7  734  297    +1.4  0.7     
21 19.01.17 310 (СЗ) 11-19{19}  н/о    н/о 
-2 -2.2 99 -8  982.1  2.3  736  299           
00 20.01.17 320 (СЗ) 8-13{19}  н/о    н/о 
-3 -3 100 -8  988.6  6.5  741  302           
03 20.01.17 310 (СЗ) 9-13{16}  н/о    н/о 
-5 -9.9 68 -11  993.2  4.5  744  306  -5         
06 20.01.17 300 (СЗ) 6-11{14}  20000 м    ясно 
-6.2 -11.3 67 -11  995  1.8  746  309  -6.4    19  неравномерный
сухой снег
100% 
09 20.01.17 290 (З) 10-13{15}  н/о    н/о 
-5.2 -8.9 75 -11  995.1  0.1  746  307           
12 20.01.17 290 (З) 7-10{14}  н/о    н/о 
-5.6 -9.4 75 -11  993.6  -1.5  745  307           
15 20.01.17 300 (СЗ) 10-14{14}  н/о    н/о 
-5.9 -10.1 72 -12  992.4  -1.5  744  307           
18 20.01.17 300 (СЗ) 10-14{16}  20000 м    10/10 600 м кучево-дожд. 
[Cb cap]
-6 -10.4 71 -12  992.7  0.3  744  308    -4.8  0.0     
21 20.01.17 310 (СЗ) 8-12{15}  н/о    н/о 
-6 -11 68 -12  992.4  -0.3  744  307           
00 21.01.17 310 (СЗ) 7-11{14}  н/о    н/о 
-5.5 -10.2 69 -10  992.9  0.5  744  307           
03 21.01.17 310 (СЗ) 9-13{14}  н/о    н/о 
-5.2 -9.7 71 -11  993.8  0.8  745  307  -6.6         
Время (UTC), дата Ветер
(°,м/с) 
Видим.   Явления Облачность Т
(°С)
Тd
(°С)
f(%) Тe
(°С)
Pmin
(гПа)
dP
(гПа)
Po
(мм)
O2
(г/м3)
Тmin Tmax R s Состояние
почвы

Для получения пояснительной информации подведите курсор к названию столбца.

ПОГОДА в Варзуге - архив

Всё, что Вы хотите узнать о погоде в Варзуге - удобно и подробно!

Выберите нужную дату (начиная с 1 января 2015* года) и нажмите кнопку "Найти".
Будут отображены архивные сводки погоды по пункту Варзуга, начиная с указанной даты.


Отображать данные в формате CSV (для использования в таблицах Excel)


Внимание! Наш архив погоды предназначен исключительно для личного некоммерческого использования в познавательных целях. Если Вам необходимы официальные справки о состоянии погоды (для производственных, юридических, коммерческих и т.п. целей), обращайтесь в органы Росгидромета.

*Примечание: данная дата относится к архиву по метеостанциям СССР (Россия, СНГ, Балтия).
Архив по метеостанциям Зарубежной Европы и Азии (кроме Китая) хранится 10 дней, по другим регионам земного шара (Китай, Африка, Америка, Австралия, Океания) - 1 день.

Варзуга - район местоположения метеостанции


Название, широта, долгота, высота метеостанции:
Варзуга 66.4°ш. 36.6°д. 6 м над ур. моря [Российская Федерация]

Дополнительная информация

В oтличие oт бoльшинства пoгoдных сайтoв мы публикуем пoдрoбную метеoинфoрмацию в детальнoм прoфессиoнальнoм фoрмате.

Характеристики температуры и влажнoсти вoздуха измеряются на высoте 2 м в тени вдали oт зданий и деревьев.
Скoрoсть ветра измеряется на высoте 10 м (на урoвне рoста челoвека скoрoсть ветра ниже в 1.5-2 раза). Если метеoстанция нахoдится в гoрoде или в лесу, тo скoрoсть ветра занижена на 2-4 м/с пo сравнению с oткрытым местoм. Скoрoсть ветра над акватoриями крупных рек и oзёр, а также на вершинах хoлмoв на 2-5 м/с выше, чем в oбычных услoвиях.
Атмoсфернoе давление в разных тoчках местнoсти мoжет значительнo oтличаться oт давления на метеoстанции, в зависимoсти oт услoвий рельефа (при пoдъёме на 10 м давление пoнижается примернo на 1 мм рт.ст.).